Location: McFarlands Corners
(41.4117°N, 81.3382°W)
Time: 08:17:56
(UTC+00:00)

Vanguard 1 Rocket - Pass Details

Date: 22 February 2026
Orbit: 653 x 4214 km, 34.3° (Epoch: 12 March)

Event Time Altitude Azimuth Distance (km) Brightness Sun altitude
Rises 21:12:18 0° 271° (W) 4,840 12.0 19.0°
Reaches altitude 10° 21:14:55 10° 268° (W) 4,187 12.0 18.6°
Maximum altitude 21:26:52 60° 192° (SSW) 3,103 10.7 16.7°
Drops below altitude 10° 21:48:51 10° 120° (ESE) 7,183 11.7 13.1°
Sets 21:55:07 0° 118° (ESE) 8,400 12.0 12.0°
